Flag for U.S.A. Weather past 2 weeks in Osage City, Kansas, U.S.A.

Now
52 °F

Sunny.


Feels Like: 52 °F
Forecast: 45 / 61 °F
Wind: 3 mph from Southwest

Location: Forbes Field

Current Time: May 22, 2015 at 8:53:57 AM

Latest Report: May 22, 2015 at 7:53 AM


Visibility: 10 mi

Pressure: 30.25 "Hg

Humidity: 86%

Dew point: 48 °F

Location of Osage CityLocation

Historic Weather in Osage City — Graph

°F

Osage City temperature yesterday

Maximum temperature yesterday: 68 °F (at 5:53 PM)
Minimum temperature yesterday: 44 °F (at 5:53 AM)
Average temperature yesterday: 57 °F

Past Weeks' High & Low Weather Summary

 TemperatureHumidityPressure
High81 °F (May 17, 3:53 PM)93% (May 8, 3:53 AM)30.34 "Hg (May 8, 3:53 AM)
Low42 °F (May 12, 4:53 AM)32% (May 12, 3:53 PM)29.65 "Hg (May 17, 12:53 AM)
Average62 °F73%30.02 "Hg
* Reported May 7 7:53 AM — May 22 7:53 AM, Osage City, Weather by CustomWeather, © 2015

Note: Actual official high and low records may vary slightly from our data, if they occured in-between our weather recording intervals... More about our weather records

Advertising

Osage City weather history for previous 24 hours

 ConditionsComfort  
Time TempWeatherWind HumidityBarometerVisibility
7:53 AM
Fri, May 22
52 °FSunny.3 mph86%30.25 "Hg10 mi
6:53 AM49 °FClear.No wind86%30.20 "Hg10 mi
5:53 AM46 °FClear.No wind89%30.20 "Hg10 mi
4:53 AM47 °FClear.No wind86%30.20 "Hg10 mi
3:53 AM47 °FClear.No wind86%30.19 "Hg10 mi
2:53 AM48 °FClear.No wind86%30.20 "Hg10 mi
1:53 AM49 °FClear.No wind86%30.22 "Hg10 mi
12:53 AM53 °FClear.No wind77%30.23 "Hg10 mi
11:53 PM
Thu, May 21
54 °FClear.6 mph77%30.23 "Hg10 mi
10:53 PM54 °FClear.3 mph80%30.22 "Hg10 mi
9:53 PM57 °FClear.3 mph72%30.20 "Hg10 mi
8:53 PM59 °FSunny.5 mph69%30.19 "Hg10 mi
7:53 PM65 °FSunny.3 mph51%30.19 "Hg10 mi
6:53 PM67 °FSunny.No wind42%30.19 "Hg10 mi
5:53 PM68 °FSunny.6 mph42%30.20 "Hg10 mi
4:53 PM67 °FSunny.5 mph39%30.22 "Hg10 mi
3:53 PM66 °FSunny.5 mph42%30.24 "Hg10 mi
2:53 PM66 °FSunny.5 mph45%30.26 "Hg10 mi
1:53 PM63 °FSunny.5 mph47%30.27 "Hg10 mi
12:53 PM63 °FSunny.5 mph47%30.27 "Hg10 mi
11:53 AM61 °FSunny.5 mph48%30.28 "Hg10 mi
10:53 AM58 °FSunny.9 mph54%30.27 "Hg10 mi
9:53 AM56 °FSunny.9 mph60%30.28 "Hg10 mi
8:53 AM52 °FSunny.12 mph69%30.29 "Hg10 mi
Weather by CustomWeather, © 2015

See weather overviewHow to use our weather pages